| time (UTC) | temp C | wind direction | speed KPH | gust KPH | rain 1hr cm | rain 24hr cm | rain mn cm | humidity % | barometer mb |
| 20260504050546 | 12 | 0 | 0.0 | 0.0 | 0.00 | 0.00 | 0.00 | 72 | 1004.0 |
| 20260504045544 | 12 | 0 | 0.0 | 0.0 | 0.00 | 0.00 | 0.00 | 70 | 1004.0 |
| 20260504045047 | 12 | 0 | 0.0 | 0.0 | 0.00 | 0.00 | 0.00 | 69 | 1004.1 |
| 20260504044552 | 12 | 0 | 0.0 | 0.0 | 0.00 | 0.00 | 0.00 | 68 | 1004.2 |
| 20260504044048 | 12 | 0 | 0.0 | 3.2 | 0.00 | 0.00 | 0.00 | 67 | 1004.0 |
| 20260504043547 | 13 | 0 | 0.0 | 4.8 | 0.00 | 0.00 | 0.00 | 68 | 1004.1 |
| 20260504043051 | 13 | 0 | 0.0 | 4.8 | 0.00 | 0.00 | 0.00 | 67 | 1003.9 |
| 20260504042546 | 13 | 211 | 1.6 | 4.8 | 0.00 | 0.00 | 0.00 | 68 | 1004.0 |
| 20260504042045 | 13 | 213 | 1.6 | 4.8 | 0.00 | 0.00 | 0.00 | 68 | 1004.0 |
| 20260504041549 | 13 | 0 | 1.6 | 3.2 | 0.00 | 0.00 | 0.00 | 68 | 1004.0 |
| 20260504041046 | 13 | 0 | 0.0 | 3.2 | 0.00 | 0.00 | 0.00 | 68 | 1004.0 |
| 20260504040549 | 12 | 0 | 0.0 | 3.2 | 0.00 | 0.00 | 0.00 | 68 | 1004.0 |
| 20260504040114 | 12 | 213 | 0.0 | 3.2 | 0.00 | 0.00 | 0.00 | 70 | 1004.3 |
| 20260504035545 | 12 | 0 | 0.0 | 3.2 | 0.00 | 0.00 | 0.00 | 73 | 1004.1 |
| 20260504035042 | 12 | 0 | 0.0 | 0.0 | 0.00 | 0.00 | 0.00 | 78 | 1004.2 |
| 20260504034550 | 12 | 0 | 0.0 | 0.0 | 0.00 | 0.00 | 0.00 | 76 | 1004.2 |
| 20260504034042 | 12 | 0 | 0.0 | 0.0 | 0.00 | 0.00 | 0.00 | 77 | 1004.2 |
| 20260504033542 | 12 | 0 | 0.0 | 0.0 | 0.00 | 0.00 | 0.00 | 74 | 1004.2 |
| 20260504033050 | 12 | 0 | 0.0 | 0.0 | 0.00 | 0.00 | 0.00 | 72 | 1004.3 |
| 20260504032541 | 13 | 0 | 0.0 | 0.0 | 0.00 | 0.00 | 0.00 | 75 | 1004.3 |
| 20260504032042 | 13 | 0 | 0.0 | 0.0 | 0.00 | 0.00 | 0.00 | 72 | 1004.3 |
| 20260504031556 | 13 | 0 | 0.0 | 3.2 | 0.00 | 0.00 | 0.00 | 72 | 1004.4 |
| 20260504031041 | 13 | 0 | 0.0 | 3.2 | 0.00 | 0.00 | 0.00 | 72 | 1004.4 |
| 20260504030544 | 13 | 0 | 0.0 | 3.2 | 0.00 | 0.00 | 0.00 | 71 | 1004.3 |
| 20260504030054 | 13 | 0 | 0.0 | 4.8 | 0.00 | 0.00 | 0.00 | 72 | 1004.3 |
| 20260504025544 | 12 | 210 | 1.6 | 4.8 | 0.00 | 0.00 | 0.00 | 74 | 1004.3 |
| 20260504025045 | 12 | 207 | 1.6 | 6.4 | 0.00 | 0.00 | 0.00 | 78 | 1004.3 |
| 20260504024550 | 12 | 207 | 1.6 | 6.4 | 0.00 | 0.00 | 0.00 | 79 | 1004.3 |
| 20260504024042 | 12 | 194 | 1.6 | 6.4 | 0.00 | 0.00 | 0.00 | 80 | 1004.3 |
| 20260504023542 | 12 | 0 | 0.0 | 1.6 | 0.00 | 0.00 | 0.00 | 80 | 1004.3 |
| 20260504023100 | 12 | 0 | 0.0 | 0.0 | 0.00 | 0.00 | 0.00 | 78 | 1004.3 |
| 20260504022546 | 12 | 0 | 0.0 | 0.0 | 0.00 | 0.00 | 0.00 | 79 | 1004.2 |
| 20260504022045 | 12 | 0 | 0.0 | 0.0 | 0.00 | 0.00 | 0.00 | 77 | 1004.1 |
| 20260504021554 | 13 | 0 | 0.0 | 0.0 | 0.00 | 0.00 | 0.00 | 75 | 1004.2 |
| 20260504021041 | 13 | 0 | 0.0 | 0.0 | 0.00 | 0.00 | 0.00 | 73 | 1004.1 |
| 20260504020544 | 13 | 0 | 0.0 | 1.6 | 0.00 | 0.00 | 0.00 | 74 | 1004.1 |
| 20260504020051 | 13 | 0 | 0.0 | 1.6 | 0.00 | 0.00 | 0.00 | 77 | 1004.2 |
| 20260504015544 | 13 | 0 | 0.0 | 0.0 | 0.00 | 0.00 | 0.00 | 76 | 1004.1 |
| 20260504015044 | 14 | 0 | 0.0 | 0.0 | 0.00 | 0.00 | 0.00 | 75 | 1004.0 |
| 20260504014559 | 14 | 0 | 0.0 | 0.0 | 0.00 | 0.00 | 0.00 | 70 | 1004.2 |
| 20260504014042 | 15 | 0 | 0.0 | 0.0 | 0.00 | 0.00 | 0.00 | 66 | 1004.2 |
| 20260504013542 | 15 | 0 | 0.0 | 0.0 | 0.00 | 0.00 | 0.00 | 64 | 1004.3 |
| 20260504013051 | 15 | 0 | 0.0 | 0.0 | 0.00 | 0.00 | 0.00 | 67 | 1004.1 |
| 20260504012542 | 15 | 0 | 0.0 | 0.0 | 0.00 | 0.00 | 0.00 | 62 | 1004.0 |
| 20260504012043 | 16 | 0 | 0.0 | 0.0 | 0.00 | 0.00 | 0.00 | 64 | 1004.0 |
| 20260504011552 | 16 | 0 | 0.0 | 0.0 | 0.00 | 0.00 | 0.00 | 55 | 1004.1 |
| 20260504011041 | 16 | 0 | 0.0 | 0.0 | 0.00 | 0.00 | 0.00 | 55 | 1003.9 |
| 20260504010541 | 16 | 0 | 0.0 | 0.0 | 0.00 | 0.00 | 0.00 | 51 | 1004.0 |
| 20260504010055 | 16 | 0 | 0.0 | 1.6 | 0.00 | 0.00 | 0.00 | 51 | 1004.0 |
| 20260504005544 | 17 | 0 | 0.0 | 3.2 | 0.00 | 0.00 | 0.00 | 53 | 1003.9 |
| 20260504005044 | 17 | 0 | 0.0 | 3.2 | 0.00 | 0.00 | 0.00 | 52 | 1003.9 |
| 20260504004554 | 17 | 0 | 0.0 | 3.2 | 0.00 | 0.00 | 0.00 | 51 | 1003.9 |
| 20260504004047 | 17 | 0 | 0.0 | 1.6 | 0.00 | 0.00 | 0.00 | 51 | 1003.9 |
| 20260504003546 | 17 | 0 | 0.0 | 3.2 | 0.00 | 0.00 | 0.00 | 50 | 1003.9 |
| 20260504003102 | 17 | 0 | 0.0 | 3.2 | 0.00 | 0.00 | 0.00 | 49 | 1004.0 |
| 20260504002546 | 17 | 207 | 0.0 | 9.7 | 0.00 | 0.00 | 0.00 | 49 | 1003.9 |
| 20260504002047 | 18 | 0 | 0.0 | 9.7 | 0.00 | 0.00 | 0.00 | 49 | 1003.9 |
| 20260504001605 | 18 | 228 | 3.2 | 9.7 | 0.00 | 0.00 | 0.00 | 48 | 1003.9 |
| 20260504001047 | 18 | 0 | 0.0 | 11.3 | 0.00 | 0.00 | 0.00 | 48 | 1003.9 |
| 20260504000546 | 18 | 0 | 1.6 | 12.9 | 0.00 | 0.00 | 0.00 | 49 | 1004.0 |
| 20260504000130 | 18 | 0 | 4.8 | 12.9 | 0.00 | 0.00 | 0.00 | 48 | 1003.9 |
| 20260503235547 | 18 | 217 | 0.0 | 8.0 | 0.00 | 0.00 | 0.00 | 50 | 1003.8 |
| 20260503235045 | 18 | 0 | 1.6 | 11.3 | 0.00 | 0.00 | 0.00 | 50 | 1003.9 |
| 20260503234556 | 18 | 213 | 3.2 | 17.7 | 0.00 | 0.00 | 0.00 | 49 | 1004.0 |
| 20260503234046 | 18 | 0 | 3.2 | 17.7 | 0.00 | 0.00 | 0.00 | 48 | 1004.0 |
| 20260503233546 | 18 | 238 | 1.6 | 11.3 | 0.00 | 0.00 | 0.00 | 49 | 1003.9 |
| 20260503233055 | 18 | 217 | 3.2 | 11.3 | 0.00 | 0.00 | 0.00 | 49 | 1004.0 |
| 20260503232545 | 18 | 202 | 0.0 | 11.3 | 0.00 | 0.00 | 0.00 | 48 | 1004.0 |
| 20260503232045 | 18 | 223 | 1.6 | 9.7 | 0.00 | 0.00 | 0.00 | 48 | 1004.1 |
| 20260503231551 | 18 | 226 | 3.2 | 12.9 | 0.00 | 0.00 | 0.00 | 49 | 1004.2 |
| 20260503231043 | 18 | 0 | 3.2 | 12.9 | 0.00 | 0.00 | 0.00 | 49 | 1004.2 |
| 20260503230544 | 18 | 211 | 3.2 | 16.1 | 0.00 | 0.00 | 0.00 | 47 | 1004.2 |
| 20260503225545 | 18 | 185 | 4.8 | 11.3 | 0.00 | 0.00 | 0.00 | 47 | 1004.3 |
| 20260503225047 | 18 | 218 | 1.6 | 11.3 | 0.00 | 0.00 | 0.00 | 48 | 1004.3 |
| 20260503224548 | 18 | 226 | 4.8 | 14.5 | 0.00 | 0.00 | 0.00 | 47 | 1004.2 |
| 20260503224048 | 18 | 0 | 3.2 | 14.5 | 0.00 | 0.00 | 0.00 | 48 | 1004.2 |
| 20260503223547 | 18 | 209 | 3.2 | 14.5 | 0.00 | 0.00 | 0.00 | 48 | 1004.3 |
| 20260503223057 | 18 | 250 | 4.8 | 14.5 | 0.00 | 0.00 | 0.00 | 48 | 1004.5 |
| 20260503222546 | 18 | 210 | 4.8 | 12.9 | 0.00 | 0.00 | 0.00 | 48 | 1004.5 |
| 20260503222045 | 18 | 0 | 1.6 | 16.1 | 0.00 | 0.00 | 0.00 | 48 | 1004.6 |
| 20260503221557 | 18 | 207 | 1.6 | 17.7 | 0.00 | 0.00 | 0.00 | 49 | 1004.6 |
| 20260503221047 | 18 | 207 | 8.0 | 25.7 | 0.00 | 0.00 | 0.00 | 50 | 1004.5 |
| 20260503220547 | 18 | 238 | 6.4 | 25.7 | 0.00 | 0.00 | 0.00 | 48 | 1004.5 |
| 20260503220057 | 18 | 240 | 8.0 | 19.3 | 0.00 | 0.00 | 0.00 | 49 | 1004.5 |
| 20260503215545 | 18 | 250 | 3.2 | 19.3 | 0.00 | 0.00 | 0.00 | 49 | 1004.5 |
| 20260503215047 | 18 | 188 | 9.7 | 16.1 | 0.00 | 0.00 | 0.00 | 49 | 1004.5 |
| 20260503214549 | 18 | 215 | 4.8 | 19.3 | 0.00 | 0.00 | 0.00 | 50 | 1004.5 |
| 20260503214044 | 18 | 235 | 9.7 | 19.3 | 0.00 | 0.00 | 0.00 | 48 | 1004.7 |
| 20260503213547 | 18 | 228 | 6.4 | 19.3 | 0.00 | 0.00 | 0.00 | 48 | 1004.8 |
| 20260503213056 | 18 | 260 | 3.2 | 19.3 | 0.00 | 0.00 | 0.00 | 48 | 1005.0 |
| 20260503212544 | 18 | 225 | 8.0 | 20.9 | 0.00 | 0.00 | 0.00 | 48 | 1004.7 |
| 20260503212044 | 18 | 207 | 8.0 | 20.9 | 0.00 | 0.00 | 0.00 | 49 | 1004.9 |
| 20260503211554 | 18 | 220 | 1.6 | 20.9 | 0.00 | 0.00 | 0.00 | 49 | 1005.0 |
| 20260503211044 | 18 | 205 | 4.8 | 30.6 | 0.00 | 0.00 | 0.00 | 51 | 1005.1 |
| 20260503210546 | 17 | 196 | 8.0 | 32.2 | 0.00 | 0.00 | 0.00 | 49 | 1005.0 |
| 20260503210052 | 18 | 234 | 9.7 | 32.2 | 0.00 | 0.00 | 0.00 | 49 | 1005.2 |
| 20260503205544 | 18 | 209 | 11.3 | 25.7 | 0.00 | 0.00 | 0.00 | 48 | 1005.2 |
| 20260503205046 | 18 | 229 | 11.3 | 25.7 | 0.00 | 0.00 | 0.00 | 46 | 1005.3 |
| 20260503204554 | 19 | 249 | 8.0 | 20.9 | 0.00 | 0.00 | 0.00 | 46 | 1005.3 |
| 20260503204045 | 18 | 234 | 6.4 | 32.2 | 0.00 | 0.00 | 0.00 | 49 | 1005.3 |
| 20260503203547 | 18 | 202 | 8.0 | 33.8 | 0.00 | 0.00 | 0.00 | 51 | 1005.4 |
| 20260503203059 | 18 | 214 | 11.3 | 33.8 | 0.00 | 0.00 | 0.00 | 52 | 1005.6 |
| 20260503202545 | 18 | 208 | 9.7 | 22.5 | 0.00 | 0.00 | 0.00 | 51 | 1005.7 |
| 20260503202047 | 17 | 223 | 11.3 | 25.7 | 0.00 | 0.00 | 0.00 | 53 | 1006.0 |
| 20260503201555 | 17 | 192 | 12.9 | 32.2 | 0.00 | 0.00 | 0.00 | 54 | 1006.1 |
| 20260503201046 | 17 | 259 | 11.3 | 35.4 | 0.00 | 0.00 | 0.00 | 53 | 1006.3 |
| 20260503200546 | 17 | 192 | 16.1 | 35.4 | 0.00 | 0.00 | 0.00 | 55 | 1006.3 |
| 20260503200100 | 17 | 198 | 12.9 | 29.0 | 0.00 | 0.00 | 0.00 | 54 | 1006.5 |
| 20260503195544 | 17 | 198 | 12.9 | 27.4 | 0.00 | 0.00 | 0.00 | 53 | 1006.6 |
| 20260503195044 | 17 | 221 | 11.3 | 20.9 | 0.00 | 0.00 | 0.00 | 54 | 1006.5 |
| 20260503194600 | 17 | 196 | 8.0 | 24.1 | 0.00 | 0.00 | 0.00 | 53 | 1006.6 |
| 20260503194047 | 17 | 259 | 11.3 | 33.8 | 0.00 | 0.00 | 0.00 | 54 | 1006.7 |
| 20260503193548 | 17 | 190 | 4.8 | 33.8 | 0.00 | 0.00 | 0.00 | 53 | 1006.6 |
| 20260503193107 | 17 | 196 | 12.9 | 24.1 | 0.00 | 0.00 | 0.00 | 49 | 1006.8 |
| 20260503192546 | 17 | 237 | 8.0 | 38.6 | 0.00 | 0.00 | 0.00 | 49 | 1006.7 |
| 20260503192049 | 17 | 261 | 14.5 | 38.6 | 0.00 | 0.00 | 0.00 | 49 | 1006.9 |
| 20260503191604 | 17 | 198 | 11.3 | 35.4 | 0.00 | 0.00 | 0.00 | 51 | 1006.7 |
| 20260503191046 | 17 | 215 | 16.1 | 35.4 | 0.00 | 0.00 | 0.00 | 51 | 1006.7 |
| 20260503190545 | 17 | 205 | 12.9 | 33.8 | 0.00 | 0.00 | 0.00 | 49 | 1006.9 |
| 20260503190053 | 17 | 225 | 9.7 | 24.1 | 0.00 | 0.00 | 0.00 | 52 | 1006.8 |
| 20260503185545 | 17 | 196 | 11.3 | 32.2 | 0.00 | 0.00 | 0.00 | 51 | 1006.7 |
| 20260503185042 | 16 | 199 | 17.7 | 32.2 | 0.00 | 0.00 | 0.00 | 53 | 1006.9 |
| 20260503184554 | 17 | 224 | 14.5 | 29.0 | 0.00 | 0.00 | 0.00 | 52 | 1006.8 |
| 20260503184047 | 17 | 217 | 11.3 | 25.7 | 0.00 | 0.00 | 0.00 | 48 | 1006.8 |
| 20260503183547 | 17 | 255 | 8.0 | 24.1 | 0.00 | 0.00 | 0.00 | 48 | 1006.9 |
| 20260503183109 | 17 | 211 | 14.5 | 25.7 | 0.00 | 0.00 | 0.00 | 52 | 1007.1 |
| 20260503182547 | 16 | 249 | 16.1 | 29.0 | 0.00 | 0.00 | 0.00 | 48 | 1007.1 |
| 20260503182047 | 16 | 190 | 12.9 | 30.6 | 0.00 | 0.00 | 0.00 | 51 | 1007.1 |
| 20260503181618 | 16 | 223 | 17.7 | 38.6 | 0.00 | 0.00 | 0.00 | 51 | 1007.3 |
| 20260503181047 | 16 | 223 | 12.9 | 38.6 | 0.00 | 0.00 | 0.00 | 55 | 1007.4 |
| 20260503180547 | 15 | 217 | 22.5 | 37.0 | 0.00 | 0.00 | 0.00 | 58 | 1007.4 |
| 20260503180054 | 15 | 203 | 16.1 | 35.4 | 0.00 | 0.00 | 0.00 | 59 | 1007.5 |
| 20260503175547 | 15 | 180 | 17.7 | 32.2 | 0.00 | 0.00 | 0.00 | 61 | 1007.6 |
| 20260503175048 | 14 | 198 | 16.1 | 32.2 | 0.00 | 0.00 | 0.00 | 61 | 1007.6 |
| 20260503174554 | 14 | 214 | 17.7 | 33.8 | 0.00 | 0.00 | 0.00 | 62 | 1007.7 |
| 20260503174046 | 15 | 208 | 14.5 | 38.6 | 0.00 | 0.00 | 0.00 | 62 | 1007.8 |
| 20260503173546 | 14 | 189 | 9.7 | 41.8 | 0.00 | 0.00 | 0.00 | 62 | 1008.0 |
| 20260503173058 | 13 | 216 | 19.3 | 41.8 | 0.00 | 0.00 | 0.00 | 64 | 1008.1 |
| 20260503172548 | 13 | 182 | 17.7 | 37.0 | 0.00 | 0.00 | 0.00 | 62 | 1008.3 |
| 20260503172048 | 13 | 190 | 12.9 | 37.0 | 0.00 | 0.00 | 0.00 | 64 | 1008.3 |
| 20260503171556 | 13 | 186 | 20.9 | 35.4 | 0.00 | 0.00 | 0.00 | 65 | 1008.4 |
| 20260503171047 | 13 | 197 | 14.5 | 27.4 | 0.00 | 0.00 | 0.00 | 65 | 1008.5 |
| 20260503170547 | 13 | 214 | 12.9 | 27.4 | 0.00 | 0.00 | 0.00 | 64 | 1008.6 |
| 20260503150546 | 13 | 218 | 9.7 | 25.7 | 0.00 | 0.00 | 0.00 | 62 | 1010.4 |
| 20260503131045 | 11 | 257 | 4.8 | 11.3 | 0.00 | 0.00 | 0.00 | 60 | 1011.3 |
| 20260503130545 | 10 | 202 | 3.2 | 16.1 | 0.00 | 0.00 | 0.00 | 61 | 1011.3 |
| 20260503110545 | 8 | 187 | 4.8 | 12.9 | 0.00 | 0.00 | 0.00 | 59 | 1011.1 |
| 20260503100104 | 8 | 208 | 4.8 | 11.3 | 0.00 | 0.00 | 0.00 | 59 | 1011.4 |
| 20260503081556 | 9 | 184 | 1.6 | 12.9 | 0.00 | 0.00 | 0.00 | 54 | 1012.3 |
| 20260503081047 | 9 | 0 | 3.2 | 12.9 | 0.00 | 0.00 | 0.00 | 53 | 1012.3 |
| 20260503080549 | 9 | 180 | 3.2 | 16.1 | 0.00 | 0.00 | 0.00 | 55 | 1012.3 |
| 20260503072546 | 8 | 234 | 3.2 | 9.7 | 0.00 | 0.00 | 0.00 | 57 | 1012.4 |
| 20260503072046 | 8 | 206 | 3.2 | 8.0 | 0.00 | 0.00 | 0.00 | 56 | 1012.5 |
| 20260503071605 | 8 | 206 | 1.6 | 8.0 | 0.00 | 0.00 | 0.00 | 58 | 1012.5 |
| 20260503071045 | 8 | 0 | 3.2 | 8.0 | 0.00 | 0.00 | 0.00 | 57 | 1012.5 |
| 20260503070546 | 8 | 219 | 1.6 | 8.0 | 0.00 | 0.00 | 0.00 | 58 | 1012.6 |
| 20260503070113 | 8 | 213 | 1.6 | 8.0 | 0.00 | 0.00 | 0.00 | 57 | 1012.7 |